1st Responders/1st Detectors/Storm Spotters Weather Summary for Harrison County, KY

Forecast Maps


Reg. NEXRAD Animation


National Fire Danger: Day 1 & 2 Map

Current NWS Watch/Warnings

SPC Convective Day 1 Outlook


Day 2 Outlook

(Click images to enlarge|Page will refresh every 5 minutes)
UK Ag. Weather Center Desktop Severe Weather Service[HERE]
Harrison County, KY Hazardous Weather Outlook Webcast
(9 AM to 9 PM Mon-Fri)
[Fast]
[Dial-up]


UKAWC 1st Detectors/1st Responders Precision Weather Forecast For HARRISON County, Kentucky
(based on the NWS County Digital Forecast)

ISSUED AT 07:00 UTC ON FRIDAY SEP 17 2021
DAY FRIDAY
EDT 3HR 4A 5A 6A 7A 8A 9A 10A 11A NOON 1P 2P 3P 4P 5P 6P 7P
MAX/MIN -- -- -- -- 63° -- -- -- -- -- -- -- -- -- -- 83°
TEMP 65° 65° 63° 63° 63° 67° 72° 76° 77° 81° 81° 81° 81° 81° 79° 79°
SKY COVER 23% 29% 29% 31% 32% 31% 22% 17% 17% 19% 22% 27% 19% 17% 15% 15%
Clouds
DEW PT 65° 65° 63° 63° 63° 67° 68° 70° 70° 70° 70° 70° 70° 70° 70° 70°
RH 99% 100% 99% 99% 99% 100% 87% 82% 76% 69% 69% 69% 67% 66% 71% 76%
POP 12HR -- -- -- -- 1% -- -- -- -- -- -- -- -- -- -- --
RAIN/SNOW (liq.equ) -- -- -- -- 0.00in -- -- -- -- -- 0.00in -- -- -- -- --
SNOWFALL -- -- -- -- 0in -- -- -- -- -- 0in -- -- -- -- --
WIND SPEED(MPH) 0 1 1 0 1 1 1 2 2 2 2 2 1 1 1 1
WIND Gust(MPH) 2 1 2 2 1 5 6 6 7 6 6 7 6 5 5 2
WIND DIR SE SE SE SE SE S S SW SW S S S S S S S
DEW Mod Dew Mod Dew Mod Dew Mod Dew Mod Dew Mod Dew Mod Dew Lgt Dew Lgt Dew -- -- -- -- -- Lgt Dew Lgt Dew
HeatIndex 65 65 63 63 63 67 72 76 77 84 84 86 85 85 83 79
Rain -- -- -- -- -- -- -- -- -- -- -- -- -- -- -- --
Rain Showers -- -- -- -- -- -- -- -- -- -- -- -- -- -- -- --
Thunder Storm -- -- -- -- -- -- -- -- -- -- -- -- -- -- -- --
Fog Patchy -- -- -- -- -- -- -- -- -- -- -- -- -- -- --
WIND CHILL -- -- -- -- -- -- -- -- -- -- -- -- -- -- -- --
SPRAY COND
DRY COND
LIVESTOCK HEATSTRESS 64.97 65.00 62.98 62.98 62.98 67.00 71.06 74.30 74.60 77.21 77.21 77.21 76.97 76.85 75.78 76.33



DAY SATURDAY SUNDAY MONDAY TUESDAY WEDNESDAY THURSDAY
EDT 6HR 8P 9P 10P 11P MIDN 1A 2A 3A 4A 5A 6A 7A 8A 9A 10A 11A NOON 1P 2P 3P 5P 8P 11P 2A 5A 8A 11A 2P 5P 8P 2A 8A 2P 8P 2A 8A 2P 8P 2A 8A 2P 8P 2A 8A 2P 8P
MAX/MIN -- -- -- -- -- -- -- -- -- -- -- -- 65° -- -- -- -- -- -- -- 83° -- -- -- -- 63° -- -- 83° -- -- 65° 79° -- -- 65° 79° -- -- 61° 74° -- -- 52° 72° --
TEMP 74° 72° 72° 70° 70° 67° 67° 67° 65° 65° 65° 65° 65° 68° 74° 76° 79° 79° 81° 81° 81° 74° 70° 67° 65° 65° 76° 81° 81° 74° 67° 65° 76° 72° 67° 65° 76° 72° 65° 63° 72° 67° 58° 54° 70° 63°
SKY COVER 15% 21% 26% 31% 33% 35% 36% 41% 46% 51% 49% 46% 44% 41% 32% 28% 32% 41% 45% 48% 57% 61% 43% 29% 34% 35% 32% 46% 50% 68% 69% 74% 74% 84% 64% 70% 66% 64% 45% 62% 46% 34% 23% 23% 13% 16%
Clouds
DEW PT 70° 68° 68° 67° 67° 67° 67° 67° 65° 65° 65° 65° 65° 68° 70° 70° 70° 70° 70° 70° 68° 70° 67° 65° 63° 63° 68° 67° 67° 67° 65° 65° 70° 68° 67° 65° 70° 70° 65° 63° 63° 59° 54° 52° 54° 54°
RH 87% 87% 90% 90% 93% 99% 99% 100% 99% 100% 99% 99% 100% 100% 87% 81% 76% 74% 69% 67% 66% 84% 93% 96% 96% 96% 79% 64% 64% 79% 93% 100% 81% 90% 99% 99% 84% 92% 100% 99% 72% 77% 86% 92% 59% 72%
POP 12HR 7% -- -- -- -- -- -- -- -- -- -- -- 23% -- -- -- -- -- -- -- -- 31% -- -- -- 2% -- -- -- 11% -- 18% -- 50% -- 39% -- 59% -- 46% -- 57% -- 21% -- 11%
RAIN/SNOW (liq.equ) 0.00in -- -- -- -- -- 0.00in -- -- -- -- -- 0.00in -- -- -- -- -- 0.00in -- -- 0.01in -- 0.00in -- 0.00in -- 0.00in -- 0.00in -- -- -- -- -- -- -- -- -- -- -- -- -- -- -- --
SNOWFALL 0in -- -- -- -- -- 0in -- -- -- -- -- 0in -- -- -- -- -- 0in -- -- 0in -- 0in -- 0in -- 0in -- 0in -- -- -- -- -- -- -- -- -- -- -- -- -- -- -- --
WIND SPEED(MPH) 2 2 1 1 1 1 1 1 0 0 0 0 0 0 1 1 1 1 1 1 2 1 0 1 1 1 6 6 6 2 1 2 7 6 6 5 7 5 5 2 7 5 1 1 7 2
WIND DIR S S S S SW SW W W NW N N N N N NE NE NE NE NE NE NE NE NE NE NE NE E E E E SE SE SE SE SE S S S S SW W W W W W NW
HeatIndex 74 72 72 70 70 67 67 67 65 65 65 65 65 68 74 76 79 83 84 85 84 74 70 67 65 65 76 83 83 74 67 65 76 72 67 65 76 72 65 63 72 67 58 54 70 63
Rain -- -- -- Chance -- -- -- -- -- Slight Chance -- -- Slight Chance -- -- Slight Chance -- -- Slight Chance -- -- -- -- -- -- -- -- -- -- -- -- -- -- -- -- -- -- -- -- -- -- -- -- -- -- --
Rain Showers -- Slight Chance Slight Chance -- Slight Chance Slight Chance Slight Chance Slight Chance Slight Chance -- Slight Chance Slight Chance -- Slight Chance Slight Chance -- Slight Chance Slight Chance -- Chance Slight Chance -- -- -- -- -- -- -- -- -- Slight Chance Chance Chance Chance Chance Chance Likely Chance Chance Chance Likely Slight Chance -- -- -- --
Thunder Storm -- Slight Chance Slight Chance -- Slight Chance Slight Chance -- -- -- -- Slight Chance Slight Chance -- -- -- -- Slight Chance Slight Chance -- Slight Chance Isolated -- -- -- -- -- -- -- -- -- -- -- Slight Chance -- -- -- Slight Chance Slight Chance -- -- -- -- -- -- -- --
Fog -- -- -- -- -- -- -- -- -- -- -- -- -- -- -- -- -- -- -- -- -- -- -- -- -- -- -- -- -- -- -- -- -- -- -- -- -- -- -- -- -- -- -- -- -- --
WIND CHILL -- -- -- -- -- -- -- -- -- -- -- -- -- -- -- -- -- -- -- -- -- -- -- -- -- -- -- -- -- -- -- -- -- -- -- -- -- -- -- -- -- -- -- -- -- --
SPRAY COND
DRY COND
LIVESTOCK HEATSTRESS 72.91 71.06 71.27 69.38 69.57 66.95 66.95 67.00 64.97 65.00 64.97 64.97 65.00 68.00 72.91 74.20 76.33 76.11 77.21 76.97 76.85 72.66 69.57 66.82 64.86 64.86 74.01 76.60 76.60 72.24 66.68 65.00 74.20 71.27 66.95 64.97 74.49 71.42 65.00 62.98 69.97 65.96 58.06 54.21 67.47 62.35

Click on individual weather variable above in left-hand column (ie., TEMP, RH, QPF 12HR) to view state forecast maps






NWS 48 Hr. Forecast Maps,

Regional Hourly Observations For HARRISON County, Kentucky
Issued at 300 AM EDT FRI SEP 17 2021
NORTHEAST KENTUCKY
  
CITY           SKY/WX    TMP DP  RH WIND       PRES   REMARKS
LEXINGTON      CLEAR     68  66  93 SE3       30.09F                  
COVINGTON      CLEAR     68  64  87 E3        30.09F                  
FRANKFORT      CLEAR     69  67  93 E3        30.08F                  


Current NOWCAST not available:
Nowcasts are not issued routinely during fair weather. Only when
precipitation or other significant weather is occuring in this county will these
forecasts be issued. Currently, there is no short term forecast in effect.


Fire Weather Forecast For HARRISON County, KY
Provided by the National Weather Service:

Issued at: Fri Sep 17 03:05:01 EDT 2021


                      Today        Tonight      Fri          

CLOUD COVER           Pcldy        Mclear       Mclear       
PRECIP TYPE           None         None         Tstms        
CHANCE PRECIP (%)     0            0            20           
TEMP (24H TREND)      81 (+2)      63 (0)       84           
RH % (24H TREND)      61 (-17)     100 (0)      61           
20FTWND-VAL/AM(MPH)   Lgt/Var                   Lgt/Var      
20FTWND-RDG/PM(MPH)   Lgt/Var      Lgt/Var      Lgt/Var      
PRECIP AMOUNT         0.00         0.00         0.02         
MIXING HGT(FT-AGL/MSL)5026                      5408         
TRANSPORT WND (MPH)   E  6                      S  5         
VENT RATE (KT-FT)     30156                     25355        
DISPERSION            Marginal                  Poor         
DSI                   SLGT UNSTBL  SLGT UNSTBL  SLGT UNSTBL  
LAL                   1            1            2            
HAINES INDEX          3            3            3            
ADI EARLY             13 GEN POOR  3 VERY POOR  24 FAIR      
ADI LATE              26 FAIR      3 VERY POOR  30 FAIR      
MAX LVORI EARLY       9            7            9            
MAX LVORI LATE        3            9            3            

REMARKS...ADI IS ATMOSPHERIC DISPERSION INDEX BY LAVDAS.        
LVORI IS LOW VISIBILITY OCCURRENCE RISK INDEX.

.SATURDAY...Partly cloudy. A 40 percent chance of showers and
thunderstorms. Lows in the mid 60s. Highs in the mid 80s. Light
winds. 
.SUNDAY...Partly cloudy. Lows in the mid 60s. Highs in the mid
80s. Light winds. 
.MONDAY...Partly cloudy. Chance of showers. Lows in the mid 60s.
Highs in the lower 80s. South winds up to 5 mph. 
.TUESDAY...Mostly cloudy. A 50 percent chance of showers. Lows in
the mid 60s. Highs in the upper 70s. South winds up to 10 mph. 
.WEDNESDAY...Partly cloudy. Chance of showers. Lows in the mid
60s. Highs in the upper 70s. Southwest winds up to 10 mph. 

SPC's Fire Weather Web Tool (Excellent!), SPC's Fire Weather Outlooks, NWS Fire Weather WEB, Fire Danger Class Map,
Keetch-Byram Drought Index, ROMAN Web, Haines Index ,
WFAS's 10-hr Dead Fuel Moist., WFAS's 100-hr Dead Fuel Moist., Probablity of Ignition, Visual blackness Map, Palmer Drought Index, HPC's Rainfall Forecast Maps


Hazardous Weather Outlook For HARRISON County, Kentucky
317 AM EDT Fri Sep 17 2021 /217 AM CDT Fri Sep 17 2021/

 DAY ONE  Today and Tonight.

No hazardous weather is expected at this time.

 DAYS TWO THROUGH SEVEN  Saturday through Thursday.

Isolated to scattered thunderstorms will be possible through the
weekend. Greater chances for storms then return Monday and Tuesday 
ahead of a cold front. Main hazards with thunderstorms will be 
locally heavy rainfall and lightning. 

 SPOTTER INFORMATION STATEMENT  

Spotter activation will not be needed.

Latest HARRISON County, Kentucky Watches, Warnings and Advisories.
Additional Drought Info.: UKAWC Drought Page, Kentucky Drought Watch


7-Day Forecast For HARRISON County, KY

TODAY
Partly cloudy. Highs in the mid 80s. Southwest winds up to 5 mph.

TONIGHT
Partly cloudy. Lows in the mid 60s. Light winds.

SATURDAY
Partly cloudy with chance of showers and slight chance of thunderstorms. Highs in the mid 80s. Northeast winds up to 5 mph. Chance of precipitation 30 percent.

SATURDAY NIGHT
Partly cloudy. Lows in the lower 60s. Northeast winds up to 5 mph.

SUNDAY
Partly cloudy. Highs in the mid 80s. East winds up to 5 mph.

SUNDAY NIGHT
Mostly cloudy with a 30 percent chance of showers. Lows in the mid 60s.

MONDAY
Showers likely and slight chance of thunderstorms. Highs in the upper 70s. Chance of precipitation 70 percent.

MONDAY NIGHT
Partly cloudy with a 50 percent chance of showers. Lows in the mid 60s.

TUESDAY
Showers likely and chance of thunderstorms. Highs in the upper 70s. Chance of precipitation 70 percent.

TUESDAY NIGHT
Showers likely and slight chance of thunderstorms. Lows around 60. Chance of precipitation 70 percent.

WEDNESDAY
Partly cloudy with a 50 percent chance of showers. Highs around 70.

WEDNESDAY NIGHT
Mostly clear with a 20 percent chance of showers. Lows in the upper 40s.

THURSDAY
Mostly sunny. Highs in the upper 60s.

Ag Weather Center, Department of Biosystems & Agricultural Engineering, University of Kentucky